Wind_Speed
44 43 41 40 40 39 39 38 38 38 37 37 37 38 38 39 40 41 42 44 45 46 47 48 48 48 48 48 47 47 47 46 46 47 48 48 49 50
44 44 43 41 41 40 40 39 39 39 38 37 37 38 39 40 41 42 43 44 45 46 47 48 48 48 48 47 47 46 45 45 46 46 48 48 49 50
45 44 43 42 42 41 41 40 40 40 39 39 39 39 40 41 42 43 44 44 45 46 47 48 48 48 47 46 45 45 44 45 45 47 48 49 50 51
46 45 43 43 43 42 42 41 41 41 41 40 40 40 40 41 42 43 44 44 45 46 47 47 47 47 46 45 44 43 43 44 46 47 48 49 51 51
46 45 44 43 43 42 42 42 42 42 41 41 40 41 41 41 42 43 44 44 45 46 46 46 46 45 44 43 43 43 43 45 46 48 49 50 51 52
45 46 45 44 43 43 43 42 42 42 42 41 41 41 41 41 42 43 43 44 45 45 46 45 45 44 44 44 43 43 44 45 47 48 49 50 51 52
45 44 43 43 43 43 43 42 42 42 42 42 41 41 40 41 42 42 43 43 44 45 45 45 44 44 44 43 43 43 44 46 47 49 50 51 52 52
46 44 44 44 44 43 43 43 42 42 42 42 41 41 41 42 42 42 42 43 44 44 44 44 43 43 43 42 43 43 45 46 48 49 50 51 51 51
45 45 45 44 45 44 44 43 43 42 42 42 41 41 41 42 42 42 42 43 43 44 44 43 43 42 42 43 43 44 45 46 48 49 50 50 51 50
45 45 45 45 44 44 43 43 42 42 42 42 41 41 42 42 42 42 42 43 43 43 43 42 42 43 43 42 43 43 45 46 47 49 50 50 50 49
46 45 45 44 44 43 43 42 42 42 41 41 40 41 42 42 42 42 42 43 43 42 42 42 42 43 43 42 42 43 45 46 47 48 49 49 49 49
46 46 45 44 44 43 42 41 41 41 41 40 39 40 41 41 42 42 41 41 40 40 41 41 42 42 42 42 42 43 45 46 47 49 49 49 49 49
46 45 44 44 44 43 43 42 41 41 40 39 39 39 40 39 40 40 39 39 40 40 40 41 41 41 41 41 42 43 44 46 47 49 49 49 49 49
45 44 44 43 43 43 43 42 41 40 39 39 39 39 39 39 39 38 38 38 39 40 40 41 40 40 40 41 42 43 44 46 47 48 49 49 49 49
44 44 43 43 43 42 42 42 42 41 40 39 39 39 38 38 38 38 37 38 39 39 39 39 39 39 40 40 41 42 43 45 47 48 49 49 49 48
45 44 43 43 42 42 42 42 41 41 40 39 39 38 37 37 37 37 36 37 38 38 38 38 38 39 39 41 42 42 43 45 47 49 49 48 48 47
45 45 44 43 42 42 42 41 40 39 39 39 38 36 36 36 36 35 35 36 37 37 37 38 38 38 38 40 41 42 43 45 47 48 48 47 47 46
44 43 42 42 41 40 39 39 38 38 37 37 36 36 35 36 35 34 34 35 36 36 37 37 37 37 38 39 40 42 44 46 47 47 46 45 45 45
42 41 41 41 40 39 38 38 37 38 38 38 37 36 36 35 34 33 34 35 36 36 35 36 35 36 37 39 41 42 44 45 46 45 44 44 44 43
41 39 38 39 39 38 38 37 37 38 38 37 36 35 35 34 33 33 34 34 34 34 34 34 34 35 37 38 41 43 45 44 43 42 42 43 42 41
39 38 38 37 37 36 37 37 36 35 35 35 34 33 32 32 31 32 33 33 33 33 33 34 35 35 37 38 41 43 43 42 40 40 40 40 40 39
38 38 38 37 35 34 34 34 34 34 34 34 33 32 31 31 31 31 32 32 32 32 33 34 35 35 37 38 40 42 41 40 39 39 38 38 38 35
37 36 35 34 34 34 33 33 33 33 33 33 32 32 31 30 30 31 31 31 30 31 32 33 34 36 37 39 40 40 39 38 37 37 38 37 35 33
Wind_Direction
250 251 253 256 259 261 263 266 269 272 275 278 282 286 289 292 295 299 302 305 308 310 312 314 314 315 316 317 317 317 318 319 320 321 322 322 322 322
250 251 252 255 257 259 262 265 268 271 274 277 281 285 288 291 295 298 301 304 307 310 312 313 313 315 316 317 317 317 318 319 321 322 323 323 323 323
249 251 252 254 256 258 261 264 267 270 274 276 280 284 287 291 294 298 300 303 306 309 311 313 314 315 316 317 317 318 318 320 322 323 323 324 324 323
249 251 252 254 255 257 260 263 266 270 273 275 279 282 286 290 294 297 300 303 306 308 311 312 313 315 316 317 318 318 319 321 322 323 323 324 324 324
249 250 252 253 255 257 259 262 265 268 272 275 277 281 285 289 293 296 299 302 305 307 309 311 312 314 316 316 317 318 319 321 322 322 323 324 325 325
248 250 251 252 254 257 260 262 265 268 272 275 277 281 284 289 292 295 298 301 304 307 309 310 311 313 315 316 317 318 319 321 322 323 323 324 325 325
248 250 251 252 253 256 258 262 265 269 272 275 278 281 285 289 292 294 296 299 303 307 309 310 311 312 313 314 315 317 319 321 322 323 324 325 326 326
247 249 250 252 254 255 257 261 264 268 271 275 277 281 285 288 290 292 295 299 303 306 308 309 309 311 312 313 315 316 318 320 322 323 324 325 326 326
246 248 250 252 254 256 258 260 264 267 270 274 277 280 283 286 288 291 295 299 303 305 307 308 309 310 311 312 314 316 318 320 322 323 324 326 326 326
246 247 250 252 253 255 258 261 264 266 269 272 275 278 281 284 287 291 295 298 302 305 307 307 308 309 311 312 314 316 318 320 322 323 325 326 326 326
247 248 249 251 252 254 257 260 262 265 267 271 275 277 281 283 286 290 294 298 301 304 306 306 307 308 310 312 314 316 318 320 321 323 325 325 326 326
247 248 249 251 253 254 257 259 261 264 268 272 275 278 281 284 286 290 293 297 300 302 304 304 305 307 310 313 314 316 317 318 320 323 324 325 325 326
246 247 249 251 252 254 257 259 262 264 266 270 274 277 281 284 287 289 292 296 298 301 303 303 305 307 310 312 314 315 316 318 320 323 324 324 325 325
246 247 248 250 250 253 257 259 261 264 267 270 273 277 280 284 287 290 293 296 298 300 301 302 304 306 309 312 314 315 316 318 320 322 324 324 325 325
245 246 248 249 250 253 255 258 260 263 267 270 274 277 279 282 286 289 292 294 297 299 301 302 304 305 308 311 313 315 316 318 320 322 323 324 324 324
244 246 248 249 250 253 255 258 261 263 266 269 272 275 277 281 285 289 292 294 297 299 301 302 303 304 307 310 313 315 317 319 320 321 322 323 324 324
245 246 247 250 251 252 255 258 260 263 266 268 270 273 277 280 284 288 291 293 295 297 300 302 303 304 306 310 314 316 318 319 320 321 322 323 324 325
244 246 248 250 251 253 255 258 259 261 263 266 270 273 277 280 283 286 290 291 294 297 300 301 302 304 306 310 314 316 318 319 320 321 322 323 325 326
244 246 248 249 250 253 255 256 257 260 263 265 269 272 276 279 283 285 288 291 295 298 300 301 302 303 306 310 314 316 318 320 320 321 322 324 326 326
242 244 245 247 249 251 252 254 257 261 263 265 269 272 275 278 280 284 288 291 294 297 299 300 301 304 306 310 314 316 318 320 321 322 324 325 326 327
242 243 243 245 247 249 251 253 256 259 262 264 267 271 273 276 280 285 288 290 293 296 298 300 302 304 306 310 314 317 319 320 322 323 325 326 327 328
241 241 242 245 246 248 250 252 255 257 260 262 265 268 272 275 281 286 288 290 293 296 298 300 304 306 308 311 315 318 319 320 322 324 326 328 329 330
239 240 242 243 244 246 249 253 256 258 259 261 264 267 272 276 281 284 286 289 293 296 299 302 304 307 309 311 314 317 319 321 323 325 327 330 331 331
Height
5719 5721 5723 5725 5727 5728 5729 5729 5730 5729 5729 5727 5725 5723 5720 5717 5714 5710 5705 5700 5695 5689 5683 5677 5670 5663 5656 5649 5641 5634 5627 5620 5613 5606 5598 5590 5582 5573
5708 5711 5713 5715 5717 5718 5719 5720 5720 5720 5720 5719 5716 5714 5711 5708 5704 5701 5696 5691 5686 5680 5674 5668 5661 5654 5647 5640 5633 5626 5619 5612 5605 5597 5589 5581 5573 5564
5698 5701 5703 5705 5707 5708 5709 5710 5710 5710 5710 5709 5707 5704 5702 5699 5695 5691 5687 5682 5676 5671 5665 5658 5652 5645 5638 5631 5624 5617 5611 5604 5596 5589 5581 5573 5564 5556
5687 5690 5692 5694 5696 5698 5699 5700 5700 5700 5699 5699 5697 5695 5692 5689 5686 5682 5677 5672 5667 5662 5656 5649 5643 5636 5630 5623 5616 5610 5603 5596 5588 5581 5573 5565 5556 5546
5675 5679 5681 5684 5686 5688 5689 5690 5690 5689 5689 5688 5687 5685 5683 5680 5676 5672 5668 5663 5658 5652 5647 5641 5634 5628 5622 5615 5608 5602 5595 5588 5581 5573 5564 5556 5547 5538
5664 5667 5670 5673 5675 5677 5678 5679 5679 5679 5679 5678 5677 5675 5673 5670 5666 5663 5658 5654 5649 5643 5638 5632 5626 5620 5614 5607 5601 5594 5587 5580 5572 5564 5556 5547 5538 5529
5653 5656 5659 5662 5664 5666 5668 5669 5669 5669 5669 5668 5667 5665 5663 5660 5657 5653 5649 5644 5639 5634 5629 5624 5618 5612 5605 5599 5593 5586 5579 5572 5564 5556 5548 5539 5530 5521
5641 5645 5648 5651 5653 5655 5656 5658 5658 5658 5658 5658 5657 5656 5654 5651 5647 5643 5639 5635 5631 5627 5621 5615 5609 5603 5597 5591 5585 5578 5571 5564 5556 5548 5539 5530 5521 5512
5630 5633 5637 5640 5642 5644 5645 5647 5647 5648 5648 5648 5647 5646 5644 5641 5637 5634 5630 5626 5622 5617 5611 5606 5600 5595 5589 5583 5576 5570 5563 5556 5548 5539 5531 5522 5513 5504
5618 5622 5625 5628 5630 5632 5634 5635 5636 5637 5638 5637 5637 5635 5633 5630 5627 5624 5620 5616 5612 5607 5602 5597 5591 5586 5580 5574 5568 5561 5555 5547 5539 5531 5523 5514 5505 5496
5607 5610 5613 5616 5619 5621 5622 5624 5625 5626 5626 5626 5625 5624 5622 5620 5617 5614 5611 5607 5603 5598 5593 5588 5583 5577 5571 5565 5559 5553 5546 5539 5531 5523 5514 5506 5497 5488
5595 5599 5602 5605 5607 5609 5611 5613 5614 5615 5615 5615 5614 5613 5612 5609 5607 5604 5601 5597 5593 5589 5585 5579 5574 5568 5563 5557 5551 5544 5537 5530 5523 5515 5506 5498 5489 5480
5583 5587 5591 5594 5596 5598 5600 5602 5604 5604 5604 5604 5604 5603 5601 5599 5597 5594 5591 5588 5584 5580 5576 5570 5565 5560 5554 5549 5543 5536 5529 5522 5514 5506 5498 5489 5481 5473
5571 5576 5579 5582 5584 5587 5589 5591 5592 5593 5594 5594 5594 5593 5592 5590 5588 5585 5582 5579 5575 5571 5566 5562 5557 5552 5546 5541 5535 5528 5520 5513 5506 5498 5490 5481 5472 5464
5559 5563 5567 5570 5573 5576 5578 5580 5581 5583 5583 5584 5583 5583 5582 5580 5578 5575 5572 5569 5566 5562 5557 5553 5548 5543 5538 5532 5526 5520 5513 5505 5498 5490 5481 5473 5464 5455
5547 5551 5554 5558 5561 5564 5567 5569 5571 5572 5573 5573 5573 5572 5571 5570 5568 5566 5563 5560 5556 5552 5548 5544 5539 5535 5529 5524 5518 5511 5504 5497 5490 5481 5473 5464 5456 5447
5535 5539 5543 5546 5549 5552 5555 5558 5560 5561 5562 5563 5563 5562 5561 5560 5558 5556 5554 5550 5547 5543 5539 5535 5530 5526 5521 5516 5510 5503 5496 5489 5481 5473 5464 5455 5447 5439
5523 5528 5532 5535 5538 5541 5544 5547 5549 5550 5552 5552 5552 5552 5551 5550 5549 5546 5544 5541 5538 5535 5531 5526 5522 5517 5512 5507 5502 5495 5488 5481 5473 5464 5456 5448 5439 5431
5512 5517 5521 5524 5528 5531 5533 5536 5538 5539 5541 5541 5542 5542 5541 5540 5539 5537 5535 5532 5529 5526 5522 5518 5514 5509 5505 5499 5493 5487 5480 5472 5464 5456 5448 5440 5432 5424
5502 5506 5510 5513 5516 5520 5522 5525 5527 5528 5530 5531 5531 5532 5532 5531 5530 5528 5526 5524 5521 5517 5513 5509 5505 5501 5497 5492 5485 5479 5472 5465 5457 5449 5441 5433 5425 5417
5491 5495 5499 5502 5505 5508 5511 5514 5516 5518 5519 5521 5521 5522 5522 5521 5520 5519 5517 5515 5512 5509 5505 5501 5497 5493 5488 5483 5477 5470 5463 5456 5449 5442 5434 5427 5419 5412
5481 5485 5488 5492 5495 5498 5500 5503 5505 5507 5509 5510 5512 5512 5513 5512 5512 5510 5509 5506 5504 5500 5497 5493 5489 5485 5480 5475 5468 5462 5455 5448 5441 5435 5428 5421 5414 5406
5471 5474 5478 5482 5485 5488 5491 5493 5495 5497 5499 5501 5502 5503 5504 5504 5503 5502 5500 5498 5495 5492 5489 5485 5481 5477 5472 5466 5460 5453 5447 5440 5434 5427 5421 5415 5408 5401